Location: Ariel
(45.9570°N, 122.5700°W)
Time: 09:54:08
(UTC-07:00)

Transit 4A - Pass Details

Date: 28 July 2019
Orbit: 863 x 981 km, 66.8° (Epoch: 20 August)

Event Time Altitude Azimuth Distance (km) Brightness Sun altitude
Rises 09:17:42 0° 327° (NNW) 3,672 10.7 34.3°
Reaches altitude 10° 09:20:19 10° 331° (NNW) 2,710 10.1 34.8°
Maximum altitude 09:26:37 66° 54° (NE) 1,029 9.1 35.9°
Drops below altitude 10° 09:32:42 10° 136° (SE) 2,619 11.1 36.9°
Sets 09:35:12 0° 139° (SE) 3,540 11.6 37.3°
